contact:dominique.lefevre@mio.osupytheas.fr, maurice.libes@osupytheas.fr, didier.mallarino@osupytheas.fr
Project:EMSO http://www.emso-fr.org/EMSO-France
Depth: 2436.0 m
Title:EMSO Ligure Ouest : Data MII capteur MICROCAT
DateTime_Computer,Latitude,Longitude,Temperature,Conductivity,Pressure,DateTime_Instrument
DateTime_Computer,Latitude,Longitude,degC,S m-1,dbar,DateTime_Instrument
2017-11-03T00:00:58Z,42.805,6.029,13.2970,4.60005,2471.957,2017-11-03T02:02:24Z
2017-11-03T00:02:33Z,42.805,6.029,13.2974,4.60001,2471.979,2017-11-03T02:03:59Z
2017-11-03T00:04:08Z,42.805,6.029,13.2975,4.60013,2471.957,2017-11-03T02:05:34Z
2017-11-03T00:05:42Z,42.805,6.029,13.2959,4.59979,2471.957,2017-11-03T02:07:09Z
2017-11-03T00:07:17Z,42.805,6.029,13.2958,4.59994,2471.942,2017-11-03T02:08:44Z
2017-11-03T00:08:52Z,42.805,6.029,13.2969,4.59982,2471.919,2017-11-03T02:10:18Z
2017-11-03T00:10:27Z,42.805,6.029,13.2959,4.59977,2471.979,2017-11-03T02:11:53Z
2017-11-03T00:12:02Z,42.805,6.029,13.2970,4.59980,2471.964,2017-11-03T02:13:28Z
2017-11-03T00:13:37Z,42.805,6.029,13.2953,4.59993,2471.957,2017-11-03T02:15:03Z
2017-11-03T00:15:11Z,42.805,6.029,13.2966,4.59983,2471.934,2017-11-03T02:16:38Z
2017-11-03T00:16:46Z,42.805,6.029,13.2962,4.59985,2471.912,2017-11-03T02:18:13Z
2017-11-03T00:18:21Z,42.805,6.029,13.2966,4.59999,2471.957,2017-11-03T02:19:47Z
2017-11-03T00:19:56Z,42.805,6.029,13.2971,4.59972,2471.942,2017-11-03T02:21:22Z
2017-11-03T00:21:31Z,42.805,6.029,13.2961,4.59970,2471.964,2017-11-03T02:22:57Z
2017-11-03T00:23:06Z,42.805,6.029,13.2954,4.59992,2471.919,2017-11-03T02:24:32Z
2017-11-03T00:24:40Z,42.805,6.029,13.2965,4.59980,2471.957,2017-11-03T02:26:07Z
2017-11-03T00:26:15Z,42.805,6.029,13.2961,4.59998,2471.957,2017-11-03T02:27:42Z
2017-11-03T00:27:50Z,42.805,6.029,13.2972,4.59982,2471.897,2017-11-03T02:29:16Z
2017-11-03T00:29:25Z,42.805,6.029,13.2951,4.59978,2471.979,2017-11-03T02:30:51Z
2017-11-03T00:31:00Z,42.805,6.029,13.2953,4.59988,2471.942,2017-11-03T02:32:26Z
2017-11-03T00:32:35Z,42.805,6.029,13.2964,4.59995,2471.942,2017-11-03T02:34:01Z
2017-11-03T00:34:09Z,42.805,6.029,13.2952,4.59975,2471.957,2017-11-03T02:35:36Z
2017-11-03T00:35:44Z,42.805,6.029,13.2961,4.59966,2471.957,2017-11-03T02:37:11Z
2017-11-03T00:37:19Z,42.805,6.029,13.2961,4.59995,2471.897,2017-11-03T02:38:45Z
2017-11-03T00:38:54Z,42.805,6.029,13.2951,4.59989,2471.964,2017-11-03T02:40:20Z
2017-11-03T00:40:29Z,42.805,6.029,13.2951,4.59970,2471.979,2017-11-03T02:41:55Z
2017-11-03T00:42:04Z,42.805,6.029,13.2951,4.59977,2471.957,2017-11-03T02:43:30Z
2017-11-03T00:43:38Z,42.805,6.029,13.2951,4.59970,2471.942,2017-11-03T02:45:05Z
2017-11-03T00:45:13Z,42.805,6.029,13.2950,4.59975,2471.919,2017-11-03T02:46:40Z
2017-11-03T00:46:48Z,42.805,6.029,13.2943,4.59971,2471.934,2017-11-03T02:48:14Z
2017-11-03T00:48:23Z,42.805,6.029,13.2960,4.59976,2471.957,2017-11-03T02:49:49Z
2017-11-03T00:49:58Z,42.805,6.029,13.2947,4.59985,2471.942,2017-11-03T02:51:24Z
2017-11-03T00:51:33Z,42.805,6.029,13.2950,4.59967,2471.942,2017-11-03T02:52:59Z
2017-11-03T00:53:07Z,42.805,6.029,13.2954,4.59979,2471.957,2017-11-03T02:54:34Z
2017-11-03T00:54:42Z,42.805,6.029,13.2956,4.59967,2471.934,2017-11-03T02:56:08Z
2017-11-03T00:56:17Z,42.805,6.029,13.2948,4.59972,2471.957,2017-11-03T02:57:43Z
2017-11-03T00:57:52Z,42.805,6.029,13.2953,4.59987,2471.957,2017-11-03T02:59:18Z
2017-11-03T00:59:27Z,42.805,6.029,13.2947,4.59977,2471.919,2017-11-03T03:00:53Z
2017-11-03T01:01:02Z,42.805,6.029,13.2951,4.59972,2471.957,2017-11-03T03:02:28Z
2017-11-03T01:02:36Z,42.805,6.029,13.2952,4.59971,2471.979,2017-11-03T03:04:03Z
2017-11-03T01:04:11Z,42.805,6.029,13.2956,4.59970,2471.919,2017-11-03T03:05:37Z
2017-11-03T01:05:46Z,42.805,6.029,13.2951,4.59978,2471.957,2017-11-03T03:07:12Z
2017-11-03T01:07:21Z,42.805,6.029,13.2947,4.59978,2471.942,2017-11-03T03:08:47Z
2017-11-03T01:08:56Z,42.805,6.029,13.2949,4.59978,2471.964,2017-11-03T03:10:22Z
2017-11-03T01:10:31Z,42.805,6.029,13.2964,4.59967,2471.964,2017-11-03T03:11:57Z
2017-11-03T01:12:05Z,42.805,6.029,13.2948,4.59978,2471.934,2017-11-03T03:13:32Z
2017-11-03T01:13:40Z,42.805,6.029,13.2961,4.59968,2471.934,2017-11-03T03:15:06Z
2017-11-03T01:15:15Z,42.805,6.029,13.2958,4.59970,2471.934,2017-11-03T03:16:41Z
2017-11-03T01:16:50Z,42.805,6.029,13.2951,4.59978,2471.934,2017-11-03T03:18:16Z
2017-11-03T01:18:25Z,42.805,6.029,13.2949,4.59966,2471.979,2017-11-03T03:19:51Z
2017-11-03T01:20:00Z,42.805,6.029,13.2955,4.59975,2471.957,2017-11-03T03:21:26Z
2017-11-03T01:21:34Z,42.805,6.029,13.2943,4.59974,2471.912,2017-11-03T03:23:01Z
2017-11-03T01:23:09Z,42.805,6.029,13.2951,4.59971,2471.919,2017-11-03T03:24:35Z
2017-11-03T01:24:44Z,42.805,6.029,13.2952,4.59969,2471.942,2017-11-03T03:26:10Z
2017-11-03T01:26:19Z,42.805,6.029,13.2945,4.59980,2471.934,2017-11-03T03:27:45Z
2017-11-03T01:27:54Z,42.805,6.029,13.2948,4.59973,2471.934,2017-11-03T03:29:20Z
2017-11-03T01:29:29Z,42.805,6.029,13.2950,4.59975,2471.957,2017-11-03T03:30:55Z
2017-11-03T01:31:03Z,42.805,6.029,13.2945,4.59972,2471.957,2017-11-03T03:32:30Z
2017-11-03T01:32:38Z,42.805,6.029,13.2951,4.59974,2471.957,2017-11-03T03:34:04Z
2017-11-03T01:34:13Z,42.805,6.029,13.2954,4.59969,2471.934,2017-11-03T03:35:39Z
2017-11-03T01:35:48Z,42.805,6.029,13.2948,4.59977,2471.979,2017-11-03T03:37:14Z
2017-11-03T01:37:23Z,42.805,6.029,13.2953,4.59970,2471.979,2017-11-03T03:38:49Z
2017-11-03T01:38:58Z,42.805,6.029,13.2951,4.59978,2471.934,2017-11-03T03:40:24Z
2017-11-03T01:40:32Z,42.805,6.029,13.2946,4.59972,2471.957,2017-11-03T03:41:59Z
2017-11-03T01:42:07Z,42.805,6.029,13.2950,4.59971,2471.934,2017-11-03T03:43:33Z
2017-11-03T01:43:42Z,42.805,6.029,13.2948,4.59972,2471.919,2017-11-03T03:45:08Z
2017-11-03T01:45:17Z,42.805,6.029,13.2950,4.59983,2471.957,2017-11-03T03:46:43Z
2017-11-03T01:46:52Z,42.805,6.029,13.2951,4.59992,2471.957,2017-11-03T03:48:18Z
2017-11-03T01:48:26Z,42.805,6.029,13.2951,4.59987,2472.002,2017-11-03T03:49:53Z
2017-11-03T01:50:01Z,42.805,6.029,13.2950,4.59967,2471.964,2017-11-03T03:51:28Z
2017-11-03T01:51:36Z,42.805,6.029,13.2943,4.59975,2471.957,2017-11-03T03:53:02Z
2017-11-03T01:53:11Z,42.805,6.029,13.2947,4.59968,2471.942,2017-11-03T03:54:37Z
2017-11-03T01:54:46Z,42.805,6.029,13.2952,4.59972,2471.942,2017-11-03T03:56:12Z
2017-11-03T01:56:21Z,42.805,6.029,13.2952,4.59972,2471.979,2017-11-03T03:57:47Z
2017-11-03T01:57:55Z,42.805,6.029,13.2957,4.59975,2471.942,2017-11-03T03:59:22Z
2017-11-03T01:59:30Z,42.805,6.029,13.2956,4.59976,2471.964,2017-11-03T04:00:57Z
2017-11-03T02:01:05Z,42.805,6.029,13.2949,4.59971,2471.979,2017-11-03T04:02:31Z
2017-11-03T02:02:40Z,42.805,6.029,13.2959,4.59972,2471.942,2017-11-03T04:04:06Z
2017-11-03T02:04:15Z,42.805,6.029,13.2953,4.59974,2471.979,2017-11-03T04:05:41Z
2017-11-03T02:05:50Z,42.805,6.029,13.2950,4.59979,2471.979,2017-11-03T04:07:16Z
2017-11-03T02:07:24Z,42.805,6.029,13.2950,4.59976,2471.919,2017-11-03T04:08:51Z
2017-11-03T02:08:59Z,42.805,6.029,13.2953,4.59967,2471.957,2017-11-03T04:10:26Z
2017-11-03T02:10:34Z,42.805,6.029,13.2951,4.59971,2471.979,2017-11-03T04:12:00Z
2017-11-03T02:12:09Z,42.805,6.029,13.2950,4.59972,2471.957,2017-11-03T04:13:35Z
2017-11-03T02:13:44Z,42.805,6.029,13.2953,4.59966,2471.957,2017-11-03T04:15:10Z
2017-11-03T02:15:19Z,42.805,6.029,13.2961,4.59972,2471.994,2017-11-03T04:16:45Z
2017-11-03T02:16:53Z,42.805,6.029,13.2950,4.59977,2471.979,2017-11-03T04:18:20Z
2017-11-03T02:18:28Z,42.805,6.029,13.2958,4.59979,2471.957,2017-11-03T04:19:55Z
2017-11-03T02:20:03Z,42.805,6.029,13.2956,4.59965,2471.979,2017-11-03T04:21:29Z
2017-11-03T02:21:38Z,42.805,6.029,13.2952,4.59979,2471.979,2017-11-03T04:23:04Z
2017-11-03T02:23:13Z,42.805,6.029,13.2958,4.59969,2471.987,2017-11-03T04:24:39Z
2017-11-03T02:24:48Z,42.805,6.029,13.2951,4.59979,2471.979,2017-11-03T04:26:14Z
2017-11-03T02:26:22Z,42.805,6.029,13.2957,4.59967,2471.964,2017-11-03T04:27:49Z
2017-11-03T02:27:57Z,42.805,6.029,13.2951,4.59967,2471.979,2017-11-03T04:29:24Z
2017-11-03T02:29:32Z,42.805,6.029,13.2956,4.59970,2471.987,2017-11-03T04:30:58Z
2017-11-03T02:31:07Z,42.805,6.029,13.2957,4.59972,2471.979,2017-11-03T04:32:33Z
2017-11-03T02:32:42Z,42.805,6.029,13.2960,4.59972,2471.987,2017-11-03T04:34:08Z
2017-11-03T02:34:17Z,42.805,6.029,13.2952,4.59970,2471.957,2017-11-03T04:35:43Z
2017-11-03T02:35:51Z,42.805,6.029,13.2957,4.59981,2471.987,2017-11-03T04:37:18Z
2017-11-03T02:37:26Z,42.805,6.029,13.2968,4.59970,2471.979,2017-11-03T04:38:53Z
2017-11-03T02:39:01Z,42.805,6.029,13.2954,4.59972,2471.942,2017-11-03T04:40:27Z
2017-11-03T02:40:36Z,42.805,6.029,13.2958,4.59971,2471.979,2017-11-03T04:42:02Z
2017-11-03T02:42:11Z,42.805,6.029,13.2953,4.59978,2472.002,2017-11-03T04:43:37Z
2017-11-03T02:43:46Z,42.805,6.029,13.2955,4.59971,2471.964,2017-11-03T04:45:12Z
2017-11-03T02:45:20Z,42.805,6.029,13.2955,4.59972,2472.016,2017-11-03T04:46:47Z
2017-11-03T02:46:55Z,42.805,6.029,13.2951,4.59972,2472.024,2017-11-03T04:48:22Z
2017-11-03T02:48:30Z,42.805,6.029,13.2951,4.59974,2472.002,2017-11-03T04:49:56Z
2017-11-03T02:50:05Z,42.805,6.029,13.2957,4.59973,2472.024,2017-11-03T04:51:31Z
2017-11-03T02:51:40Z,42.805,6.029,13.2958,4.59975,2472.024,2017-11-03T04:53:06Z
2017-11-03T02:53:15Z,42.805,6.029,13.2955,4.59974,2472.002,2017-11-03T04:54:41Z
2017-11-03T02:54:49Z,42.805,6.029,13.2956,4.59971,2472.024,2017-11-03T04:56:16Z
2017-11-03T02:56:24Z,42.805,6.029,13.2953,4.59973,2471.979,2017-11-03T04:57:51Z
2017-11-03T02:57:59Z,42.805,6.029,13.2958,4.59977,2472.047,2017-11-03T04:59:25Z
2017-11-03T02:59:34Z,42.805,6.029,13.2956,4.59982,2472.002,2017-11-03T05:01:00Z
2017-11-03T03:01:09Z,42.805,6.029,13.2951,4.59975,2472.002,2017-11-03T05:02:35Z
2017-11-03T03:02:44Z,42.805,6.029,13.2955,4.59970,2472.024,2017-11-03T05:04:10Z
2017-11-03T03:04:18Z,42.805,6.029,13.2955,4.59971,2471.987,2017-11-03T05:05:45Z
2017-11-03T03:05:53Z,42.805,6.029,13.2951,4.59971,2472.01,2017-11-03T05:07:19Z
2017-11-03T03:07:28Z,42.805,6.029,13.2952,4.59970,2472.047,2017-11-03T05:08:54Z
2017-11-03T03:09:03Z,42.805,6.029,13.2952,4.59972,2472.047,2017-11-03T05:10:29Z
2017-11-03T03:10:38Z,42.805,6.029,13.2949,4.59970,2472.024,2017-11-03T05:12:04Z
2017-11-03T03:12:13Z,42.805,6.029,13.2948,4.59968,2472.024,2017-11-03T05:13:39Z
2017-11-03T03:13:47Z,42.805,6.029,13.2951,4.59970,2472.047,2017-11-03T05:15:14Z
2017-11-03T03:15:22Z,42.805,6.029,13.2953,4.59970,2472.01,2017-11-03T05:16:48Z
2017-11-03T03:16:57Z,42.805,6.029,13.2950,4.59969,2472.047,2017-11-03T05:18:23Z
2017-11-03T03:18:32Z,42.805,6.029,13.2957,4.59971,2472.01,2017-11-03T05:19:58Z
2017-11-03T03:20:07Z,42.805,6.029,13.2951,4.59972,2472.069,2017-11-03T05:21:33Z
2017-11-03T03:21:42Z,42.805,6.029,13.2956,4.59966,2472.032,2017-11-03T05:23:08Z
2017-11-03T03:23:16Z,42.805,6.029,13.2948,4.59967,2472.047,2017-11-03T05:24:43Z
2017-11-03T03:24:51Z,42.805,6.029,13.2953,4.59971,2472.047,2017-11-03T05:26:17Z
2017-11-03T03:26:26Z,42.805,6.029,13.2953,4.59967,2472.047,2017-11-03T05:27:52Z
2017-11-03T03:28:01Z,42.805,6.029,13.2957,4.59967,2472.047,2017-11-03T05:29:27Z
2017-11-03T03:29:36Z,42.805,6.029,13.2954,4.59972,2472.069,2017-11-03T05:31:02Z
2017-11-03T03:31:11Z,42.805,6.029,13.2956,4.59973,2472.032,2017-11-03T05:32:37Z
2017-11-03T03:32:45Z,42.805,6.029,13.2952,4.59970,2472.047,2017-11-03T05:34:12Z
2017-11-03T03:34:20Z,42.805,6.029,13.2963,4.59972,2472.047,2017-11-03T05:35:46Z
2017-11-03T03:35:55Z,42.805,6.029,13.2961,4.59969,2472.069,2017-11-03T05:37:21Z
2017-11-03T03:37:30Z,42.805,6.029,13.2952,4.59973,2472.032,2017-11-03T05:38:56Z
2017-11-03T03:39:05Z,42.805,6.029,13.2951,4.59975,2472.024,2017-11-03T05:40:31Z
2017-11-03T03:40:40Z,42.805,6.029,13.2956,4.59970,2472.055,2017-11-03T05:42:06Z
2017-11-03T03:42:14Z,42.805,6.029,13.2955,4.59971,2472.055,2017-11-03T05:43:41Z
2017-11-03T03:43:49Z,42.805,6.029,13.2955,4.59971,2472.092,2017-11-03T05:45:15Z
2017-11-03T03:45:24Z,42.805,6.029,13.2952,4.59973,2472.069,2017-11-03T05:46:50Z
2017-11-03T03:46:59Z,42.805,6.029,13.2955,4.59973,2472.069,2017-11-03T05:48:25Z
2017-11-03T03:48:34Z,42.805,6.029,13.2954,4.59973,2472.055,2017-11-03T05:50:00Z
2017-11-03T03:50:08Z,42.805,6.029,13.2951,4.59974,2472.069,2017-11-03T05:51:35Z
2017-11-03T03:51:43Z,42.805,6.029,13.2954,4.59967,2472.115,2017-11-03T05:53:10Z
2017-11-03T03:53:18Z,42.805,6.029,13.2953,4.59972,2472.069,2017-11-03T05:54:44Z
2017-11-03T03:54:53Z,42.805,6.029,13.2958,4.59977,2472.092,2017-11-03T05:56:19Z
2017-11-03T03:56:28Z,42.805,6.029,13.2958,4.59973,2472.069,2017-11-03T05:57:54Z
2017-11-03T03:58:03Z,42.805,6.029,13.2964,4.59976,2472.077,2017-11-03T05:59:29Z
2017-11-03T03:59:37Z,42.805,6.029,13.2961,4.59973,2472.069,2017-11-03T06:01:04Z
2017-11-03T04:01:12Z,42.805,6.029,13.2949,4.59968,2472.055,2017-11-03T06:02:39Z
2017-11-03T04:02:47Z,42.805,6.029,13.2964,4.59975,2472.092,2017-11-03T06:04:13Z
2017-11-03T04:04:22Z,42.805,6.029,13.2949,4.59977,2472.115,2017-11-03T06:05:48Z
2017-11-03T04:05:57Z,42.805,6.029,13.2965,4.59976,2472.069,2017-11-03T06:07:23Z
2017-11-03T04:07:32Z,42.805,6.029,13.2958,4.59976,2472.069,2017-11-03T06:08:58Z
2017-11-03T04:09:06Z,42.805,6.029,13.2952,4.59974,2472.092,2017-11-03T06:10:33Z
2017-11-03T04:10:41Z,42.805,6.029,13.2957,4.59973,2472.092,2017-11-03T06:12:08Z
2017-11-03T04:12:16Z,42.805,6.029,13.2959,4.59974,2472.115,2017-11-03T06:13:42Z
2017-11-03T04:13:51Z,42.805,6.029,13.2962,4.59972,2472.092,2017-11-03T06:15:17Z
2017-11-03T04:15:26Z,42.805,6.029,13.2957,4.59972,2472.077,2017-11-03T06:16:52Z
2017-11-03T04:17:01Z,42.805,6.029,13.2963,4.59970,2472.069,2017-11-03T06:18:27Z
2017-11-03T04:18:35Z,42.805,6.029,13.2963,4.59969,2472.092,2017-11-03T06:20:02Z
2017-11-03T04:20:10Z,42.805,6.029,13.2958,4.59977,2472.115,2017-11-03T06:21:37Z
2017-11-03T04:21:45Z,42.805,6.029,13.2957,4.59974,2472.092,2017-11-03T06:23:11Z
2017-11-03T04:23:20Z,42.805,6.029,13.2961,4.59976,2472.115,2017-11-03T06:24:46Z
2017-11-03T04:24:55Z,42.805,6.029,13.2961,4.59974,2472.092,2017-11-03T06:26:21Z
2017-11-03T04:26:30Z,42.805,6.029,13.2961,4.59973,2472.1,2017-11-03T06:27:56Z
2017-11-03T04:28:04Z,42.805,6.029,13.2954,4.59974,2472.1,2017-11-03T06:29:31Z
2017-11-03T04:29:39Z,42.805,6.029,13.2962,4.59978,2472.1,2017-11-03T06:31:06Z
2017-11-03T04:31:14Z,42.805,6.029,13.2961,4.59972,2472.1,2017-11-03T06:32:40Z
2017-11-03T04:32:49Z,42.805,6.029,13.2957,4.59972,2472.077,2017-11-03T06:34:15Z
2017-11-03T04:34:24Z,42.805,6.029,13.2952,4.59972,2472.115,2017-11-03T06:35:50Z
2017-11-03T04:35:59Z,42.805,6.029,13.2960,4.59973,2472.1,2017-11-03T06:37:25Z
2017-11-03T04:37:33Z,42.805,6.029,13.2958,4.59970,2472.115,2017-11-03T06:39:00Z
2017-11-03T04:39:08Z,42.805,6.029,13.2954,4.59974,2472.115,2017-11-03T06:40:35Z
2017-11-03T04:40:43Z,42.805,6.029,13.2964,4.59971,2472.1,2017-11-03T06:42:09Z
2017-11-03T04:42:18Z,42.805,6.029,13.2951,4.59971,2472.115,2017-11-03T06:43:44Z
2017-11-03T04:43:53Z,42.805,6.029,13.2958,4.59970,2472.1,2017-11-03T06:45:19Z
2017-11-03T04:45:28Z,42.805,6.029,13.2957,4.59975,2472.115,2017-11-03T06:46:54Z
2017-11-03T04:47:02Z,42.805,6.029,13.2954,4.59973,2472.1,2017-11-03T06:48:29Z
2017-11-03T04:48:37Z,42.805,6.029,13.2957,4.59969,2472.137,2017-11-03T06:50:03Z
2017-11-03T04:50:12Z,42.805,6.029,13.2954,4.59972,2472.1,2017-11-03T06:51:38Z
2017-11-03T04:51:47Z,42.805,6.029,13.2957,4.59972,2472.137,2017-11-03T06:53:13Z
2017-11-03T04:53:22Z,42.805,6.029,13.2957,4.59974,2472.115,2017-11-03T06:54:48Z
2017-11-03T04:54:57Z,42.805,6.029,13.2957,4.59967,2472.137,2017-11-03T06:56:23Z
2017-11-03T04:56:31Z,42.805,6.029,13.2957,4.59974,2472.115,2017-11-03T06:57:58Z
2017-11-03T04:58:06Z,42.805,6.029,13.2956,4.59971,2472.137,2017-11-03T06:59:32Z
2017-11-03T04:59:41Z,42.805,6.029,13.2952,4.59975,2472.137,2017-11-03T07:01:07Z
2017-11-03T05:01:16Z,42.805,6.029,13.2956,4.59972,2472.137,2017-11-03T07:02:42Z
2017-11-03T05:02:51Z,42.805,6.029,13.2964,4.59970,2472.137,2017-11-03T07:04:17Z
2017-11-03T05:04:26Z,42.805,6.029,13.2956,4.59975,2472.137,2017-11-03T07:05:52Z
2017-11-03T05:06:00Z,42.805,6.029,13.2955,4.59972,2472.092,2017-11-03T07:07:27Z
2017-11-03T05:07:35Z,42.805,6.029,13.2954,4.59972,2472.115,2017-11-03T07:09:01Z
2017-11-03T05:09:10Z,42.805,6.029,13.2958,4.59972,2472.16,2017-11-03T07:10:36Z
2017-11-03T05:10:45Z,42.805,6.029,13.2951,4.59969,2472.145,2017-11-03T07:12:11Z
2017-11-03T05:12:20Z,42.805,6.029,13.2958,4.59973,2472.123,2017-11-03T07:13:46Z
2017-11-03T05:13:55Z,42.805,6.029,13.2959,4.59975,2472.1,2017-11-03T07:15:21Z
2017-11-03T05:15:29Z,42.805,6.029,13.2958,4.59978,2472.137,2017-11-03T07:16:56Z
2017-11-03T05:17:04Z,42.805,6.029,13.2959,4.59971,2472.137,2017-11-03T07:18:30Z
2017-11-03T05:18:39Z,42.805,6.029,13.2957,4.59976,2472.115,2017-11-03T07:20:05Z
2017-11-03T05:20:14Z,42.805,6.029,13.2960,4.59968,2472.115,2017-11-03T07:21:40Z
2017-11-03T05:21:49Z,42.805,6.029,13.2961,4.59976,2472.115,2017-11-03T07:23:15Z
2017-11-03T05:23:23Z,42.805,6.029,13.2961,4.59976,2472.123,2017-11-03T07:24:50Z
2017-11-03T05:24:58Z,42.805,6.029,13.2958,4.59980,2472.145,2017-11-03T07:26:25Z
2017-11-03T05:26:33Z,42.805,6.029,13.2957,4.59967,2472.16,2017-11-03T07:27:59Z
2017-11-03T05:28:08Z,42.805,6.029,13.2961,4.59974,2472.137,2017-11-03T07:29:34Z
2017-11-03T05:29:43Z,42.805,6.029,13.2974,4.59975,2472.137,2017-11-03T07:31:09Z
2017-11-03T05:31:18Z,42.805,6.029,13.2965,4.59975,2472.16,2017-11-03T07:32:44Z
2017-11-03T05:32:52Z,42.805,6.029,13.2958,4.59975,2472.137,2017-11-03T07:34:19Z
2017-11-03T05:34:27Z,42.805,6.029,13.2957,4.59973,2472.137,2017-11-03T07:35:54Z
2017-11-03T05:36:02Z,42.805,6.029,13.2955,4.59984,2472.182,2017-11-03T07:37:28Z
2017-11-03T05:37:37Z,42.805,6.029,13.2961,4.59971,2472.1,2017-11-03T07:39:03Z
2017-11-03T05:39:12Z,42.805,6.029,13.2960,4.59974,2472.16,2017-11-03T07:40:38Z
2017-11-03T05:40:47Z,42.805,6.029,13.2954,4.59979,2472.145,2017-11-03T07:42:13Z
2017-11-03T05:42:21Z,42.805,6.029,13.2958,4.59976,2472.137,2017-11-03T07:43:48Z
2017-11-03T05:43:56Z,42.805,6.029,13.2958,4.59973,2472.123,2017-11-03T07:45:23Z
2017-11-03T05:45:31Z,42.805,6.029,13.2957,4.59973,2472.16,2017-11-03T07:46:57Z
2017-11-03T05:47:06Z,42.805,6.029,13.2959,4.59970,2472.168,2017-11-03T07:48:32Z
2017-11-03T05:48:41Z,42.805,6.029,13.2954,4.59965,2472.16,2017-11-03T07:50:07Z
2017-11-03T05:50:16Z,42.805,6.029,13.2953,4.59969,2472.16,2017-11-03T07:51:42Z
2017-11-03T05:51:50Z,42.805,6.029,13.2954,4.59977,2472.16,2017-11-03T07:53:17Z
2017-11-03T05:53:25Z,42.805,6.029,13.2952,4.59974,2472.168,2017-11-03T07:54:52Z
2017-11-03T05:55:00Z,42.805,6.029,13.2951,4.59975,2472.137,2017-11-03T07:56:26Z
2017-11-03T05:56:35Z,42.805,6.029,13.2964,4.59975,2472.123,2017-11-03T07:58:01Z
2017-11-03T05:58:10Z,42.805,6.029,13.2958,4.59974,2472.123,2017-11-03T07:59:36Z
2017-11-03T05:59:45Z,42.805,6.029,13.2955,4.59982,2472.16,2017-11-03T08:01:11Z
2017-11-03T06:01:19Z,42.805,6.029,13.2965,4.59970,2472.137,2017-11-03T08:02:46Z
2017-11-03T06:02:54Z,42.805,6.029,13.2959,4.59977,2472.168,2017-11-03T08:04:21Z
2017-11-03T06:04:29Z,42.805,6.029,13.2970,4.59977,2472.182,2017-11-03T08:05:55Z
2017-11-03T06:06:04Z,42.805,6.029,13.2974,4.59973,2472.182,2017-11-03T08:07:30Z
2017-11-03T06:07:39Z,42.805,6.029,13.2963,4.59970,2472.137,2017-11-03T08:09:05Z
2017-11-03T06:09:14Z,42.805,6.029,13.2957,4.59973,2472.182,2017-11-03T08:10:40Z
2017-11-03T06:10:48Z,42.805,6.029,13.2956,4.59974,2472.16,2017-11-03T08:12:15Z
2017-11-03T06:12:23Z,42.805,6.029,13.2962,4.59984,2472.137,2017-11-03T08:13:50Z
2017-11-03T06:13:58Z,42.805,6.029,13.2953,4.59972,2472.137,2017-11-03T08:15:24Z
2017-11-03T06:15:33Z,42.805,6.029,13.2957,4.59976,2472.16,2017-11-03T08:16:59Z
2017-11-03T06:17:08Z,42.805,6.029,13.2958,4.59972,2472.145,2017-11-03T08:18:34Z
2017-11-03T06:18:43Z,42.805,6.029,13.2956,4.59973,2472.16,2017-11-03T08:20:09Z
2017-11-03T06:20:17Z,42.805,6.029,13.2962,4.59975,2472.16,2017-11-03T08:21:44Z
2017-11-03T06:21:52Z,42.805,6.029,13.2959,4.59970,2472.123,2017-11-03T08:23:19Z
2017-11-03T06:23:27Z,42.805,6.029,13.2966,4.59978,2472.16,2017-11-03T08:24:53Z
2017-11-03T06:25:02Z,42.805,6.029,13.2970,4.59977,2472.145,2017-11-03T08:26:28Z
2017-11-03T06:26:37Z,42.805,6.029,13.2966,4.59983,2472.16,2017-11-03T08:28:03Z
2017-11-03T06:28:12Z,42.805,6.029,13.2966,4.59987,2472.145,2017-11-03T08:29:38Z
2017-11-03T06:29:46Z,42.805,6.029,13.2964,4.59976,2472.16,2017-11-03T08:31:13Z
2017-11-03T06:31:21Z,42.805,6.029,13.2966,4.59983,2472.137,2017-11-03T08:32:48Z
2017-11-03T06:32:56Z,42.805,6.029,13.2968,4.59978,2472.16,2017-11-03T08:34:22Z
2017-11-03T06:34:31Z,42.805,6.029,13.2966,4.59983,2472.145,2017-11-03T08:35:57Z
2017-11-03T06:36:06Z,42.805,6.029,13.2976,4.59978,2472.168,2017-11-03T08:37:32Z
2017-11-03T06:37:41Z,42.805,6.029,13.2966,4.59980,2472.137,2017-11-03T08:39:07Z
2017-11-03T06:39:15Z,42.805,6.029,13.2958,4.59979,2472.16,2017-11-03T08:40:42Z
2017-11-03T06:40:50Z,42.805,6.029,13.2960,4.59981,2472.182,2017-11-03T08:42:16Z
2017-11-03T06:42:25Z,42.805,6.029,13.2955,4.59970,2472.16,2017-11-03T08:43:51Z
2017-11-03T06:44:00Z,42.805,6.029,13.2961,4.59978,2472.182,2017-11-03T08:45:26Z
2017-11-03T06:45:35Z,42.805,6.029,13.2972,4.59977,2472.145,2017-11-03T08:47:01Z
2017-11-03T06:47:10Z,42.805,6.029,13.2957,4.59977,2472.168,2017-11-03T08:48:36Z
2017-11-03T06:48:44Z,42.805,6.029,13.2956,4.59977,2472.137,2017-11-03T08:50:11Z
2017-11-03T06:50:19Z,42.805,6.029,13.2957,4.59982,2472.16,2017-11-03T08:51:46Z
2017-11-03T06:51:54Z,42.805,6.029,13.2963,4.59982,2472.145,2017-11-03T08:53:20Z
2017-11-03T06:53:29Z,42.805,6.029,13.2964,4.59980,2472.16,2017-11-03T08:54:55Z
2017-11-03T06:55:04Z,42.805,6.029,13.2962,4.59981,2472.145,2017-11-03T08:56:30Z
2017-11-03T06:56:39Z,42.805,6.029,13.2958,4.59984,2472.137,2017-11-03T08:58:05Z
2017-11-03T06:58:13Z,42.805,6.029,13.2968,4.59983,2472.16,2017-11-03T08:59:40Z
2017-11-03T06:59:48Z,42.805,6.029,13.2961,4.59985,2472.16,2017-11-03T09:01:14Z
2017-11-03T07:01:23Z,42.805,6.029,13.2969,4.59988,2472.137,2017-11-03T09:02:49Z
2017-11-03T07:02:58Z,42.805,6.029,13.2966,4.59973,2472.137,2017-11-03T09:04:24Z
2017-11-03T07:04:33Z,42.805,6.029,13.2962,4.59971,2472.123,2017-11-03T09:05:59Z
2017-11-03T07:06:08Z,42.805,6.029,13.2955,4.59978,2472.16,2017-11-03T09:07:34Z
2017-11-03T07:07:42Z,42.805,6.029,13.2960,4.59985,2472.16,2017-11-03T09:09:09Z
2017-11-03T07:09:17Z,42.805,6.029,13.2964,4.59985,2472.182,2017-11-03T09:10:43Z
2017-11-03T07:10:52Z,42.805,6.029,13.2965,4.59985,2472.137,2017-11-03T09:12:18Z
2017-11-03T07:12:27Z,42.805,6.029,13.2961,4.59974,2472.145,2017-11-03T09:13:53Z
2017-11-03T07:14:02Z,42.805,6.029,13.2959,4.59978,2472.137,2017-11-03T09:15:28Z
2017-11-03T07:15:36Z,42.805,6.029,13.2957,4.59974,2472.137,2017-11-03T09:17:03Z
2017-11-03T07:17:11Z,42.805,6.029,13.2955,4.59975,2472.182,2017-11-03T09:18:38Z
2017-11-03T07:18:46Z,42.805,6.029,13.2966,4.59980,2472.16,2017-11-03T09:20:12Z
2017-11-03T07:20:21Z,42.805,6.029,13.2961,4.59982,2472.16,2017-11-03T09:21:47Z
2017-11-03T07:21:56Z,42.805,6.029,13.2961,4.59988,2472.16,2017-11-03T09:23:22Z
2017-11-03T07:23:31Z,42.805,6.029,13.2963,4.59980,2472.145,2017-11-03T09:24:57Z
2017-11-03T07:25:06Z,42.805,6.029,13.2957,4.59984,2472.123,2017-11-03T09:26:32Z
2017-11-03T07:26:40Z,42.805,6.029,13.2960,4.59991,2472.137,2017-11-03T09:28:07Z
2017-11-03T07:28:15Z,42.805,6.029,13.2984,4.59983,2472.16,2017-11-03T09:29:41Z
2017-11-03T07:29:50Z,42.805,6.029,13.2963,4.59984,2472.16,2017-11-03T09:31:16Z
2017-11-03T07:31:25Z,42.805,6.029,13.2970,4.59987,2472.123,2017-11-03T09:32:51Z
2017-11-03T07:33:00Z,42.805,6.029,13.2958,4.59980,2472.16,2017-11-03T09:34:26Z
2017-11-03T07:34:34Z,42.805,6.029,13.2969,4.59984,2472.16,2017-11-03T09:36:01Z
2017-11-03T07:36:09Z,42.805,6.029,13.2961,4.59986,2472.115,2017-11-03T09:37:36Z
2017-11-03T07:37:44Z,42.805,6.029,13.2949,4.59996,2472.137,2017-11-03T09:39:10Z
2017-11-03T07:39:19Z,42.805,6.029,13.2957,4.60006,2472.123,2017-11-03T09:40:45Z
2017-11-03T07:40:54Z,42.805,6.029,13.2961,4.59987,2472.16,2017-11-03T09:42:20Z
2017-11-03T07:42:29Z,42.805,6.029,13.2965,4.59991,2472.137,2017-11-03T09:43:55Z
2017-11-03T07:44:03Z,42.805,6.029,13.2961,4.59985,2472.137,2017-11-03T09:45:30Z
2017-11-03T07:45:38Z,42.805,6.029,13.2985,4.59978,2472.115,2017-11-03T09:47:05Z